Hatteras, NC

6:48 AM EDT on October 19, 2019 (GMT -0400)
Mitchell

Weather History for KHSE - August, 2019

Change the Weather History Date:

Tuesday, August 13, 2019

  Actual Average Record
Temperature  
Mean Temperature 82 °F 79 °F  
Max Temperature 91 °F 84 °F 92 °F (1918)
Min Temperature 73 °F 73 °F 59 °F (1974)
Degree Days  
Heating Degree Days 0 0  
Month to date heating degree days 0 0  
Since 1 June heating degree days 0 3  
Since 1 July heating degree days 0 0  
Cooling Degree Days 18 14  
Month to date cooling degree days 217 182  
Year to date cooling degree days 1517 1070  
Since 1 June cooling degree days 1135 927  
Growing Degree Days 32 (Base 50)    
Moisture  
Dew Point 75 °F    
Average Humidity 74    
Maximum Humidity 100    
Minimum Humidity 63    
Precipitation  
Precipitation 0.00 in 0.21 in 3.26 in (1953)
Month to date precipitation 2.59 2.69  
Year to date precipitation 34.31 32.95  
Snow  
Snow 0.00 in - - ()
Month to date snowfall 0.0  
Since 1 July snowfall 0.0  
Snow Depth 0.00 in    
Sea Level Pressure  
Sea Level Pressure 29.91 in    
Wind  
Wind Speed 6 mph ()    
Max Wind Speed 18 mph    
Max Gust Speed 25 mph    
Visibility 10.0 miles    
Events      
T = Trace of Precipitation, MM = Missing Value Source: Averaged Metar Reports

Daily Weather History Graph

Daily Weather History Graph

Search for Another Location

Airport or City:

Astronomy

Aug. 13, 2019 Rise Set
Actual Time 6:20 AM EDT 7:53 PM EDT
Civil Twilight 5:53 AM EDT 8:20 PM EDT
Nautical Twilight 5:20 AM EDT 8:53 PM EDT
Astronomical Twilight 4:46 AM EDT 9:27 PM EDT
Moon 7:02 PM EDT (8/13) 4:25 AM EDT (8/13)
Length of Visible Light 14h 27m
Length of Day
13h 33m
Waxing Gibbous, 97% of the Moon is Illuminated
Aug 13
Waxing Gibbous
Aug 15
Full
Aug 23
Last Quarter
Aug 30
New
Sep 5
First Quarter

Hourly Weather History & Observations

Time (EDT) Temp. Heat Index Dew Point Humidity Pressure Visibility Wind Dir Wind Speed Gust Speed Precip Events Conditions
12:51 AM 81.0 °F 84.9 °F 71.1 °F 72% 29.96 in 10.0 mi SE 5.8 mph - N/A   Clear
1:51 AM 81.0 °F 85.2 °F 72.0 °F 74% 29.95 in 10.0 mi SSE 4.6 mph - N/A   Clear
2:51 AM 81.0 °F 84.9 °F 71.1 °F 72% 29.93 in 10.0 mi SSE 3.5 mph - N/A   Clear
3:51 AM 78.1 °F - 71.1 °F 79% 29.94 in 10.0 mi South 3.5 mph - N/A   Clear
4:51 AM 75.0 °F - 71.1 °F 87% 29.93 in 10.0 mi Calm Calm - N/A   Clear
5:51 AM 73.9 °F - 71.1 °F 91% 29.93 in 10.0 mi Calm Calm - N/A   Clear
6:51 AM 73.9 °F - 73.0 °F 97% 29.94 in 10.0 mi Calm Calm - N/A   Partly Cloudy
7:51 AM 82.9 °F 90.8 °F 75.9 °F 79% 29.94 in 10.0 mi South 5.8 mph - N/A   Clear
8:51 AM 84.9 °F 94.1 °F 75.9 °F 74% 29.94 in 10.0 mi South 5.8 mph - N/A   Clear
9:51 AM 87.1 °F 97.3 °F 75.9 °F 69% 29.94 in 10.0 mi South 5.8 mph - N/A   Clear
10:51 AM 89.1 °F 100.2 °F 75.9 °F 65% 29.94 in 10.0 mi South 8.1 mph - N/A   Clear
11:51 AM 88.0 °F 97.5 °F 75.0 °F 65% 29.94 in 10.0 mi SSW 6.9 mph - N/A   Partly Cloudy
12:51 PM 90.0 °F 101.3 °F 75.9 °F 63% 29.93 in 10.0 mi South 9.2 mph - N/A   Clear
1:51 PM 91.0 °F 104.2 °F 77.0 °F 63% 29.92 in - South 10.4 mph - N/A   Clear
2:51 PM 91.0 °F 106.2 °F 78.1 °F 66% 29.89 in 10.0 mi South 10.4 mph - N/A   Clear
3:51 PM 90.0 °F 101.3 °F 75.9 °F 63% 29.88 in 10.0 mi SSW 12.7 mph - N/A   Clear
4:51 PM 89.1 °F 101.4 °F 77.0 °F 67% 29.86 in 10.0 mi South 10.4 mph - N/A   Clear
5:51 PM 87.1 °F 97.3 °F 75.9 °F 69% 29.85 in 10.0 mi South 13.8 mph - N/A   Clear
6:51 PM 84.9 °F 95.3 °F 77.0 °F 77% 29.86 in 10.0 mi SSW 12.7 mph - N/A   Clear
7:51 PM 84.0 °F 93.7 °F 77.0 °F 79% 29.88 in 10.0 mi SW 9.2 mph 16.1 mph N/A   Clear
8:51 PM 84.0 °F 93.7 °F 77.0 °F 79% 29.89 in 10.0 mi SW 11.5 mph - N/A   Clear
9:51 PM 84.0 °F 92.6 °F 75.9 °F 76% 29.88 in 10.0 mi SW 13.8 mph 20.7 mph N/A   Clear
10:51 PM 84.0 °F 92.6 °F 75.9 °F 76% 29.85 in 10.0 mi SW 15.0 mph 25.3 mph N/A   Clear
11:51 PM 82.9 °F 90.8 °F 75.9 °F 79% 29.87 in 10.0 mi WSW 12.7 mph - N/A   Clear